Change the Weather History Date:

Friday, April 12, 2013

  Actual Average Record
Temperature  
Mean Temperature 44 °F 52 °F  
Max Temperature 47 °F 60 °F 90 °F (1977)
Min Temperature 41 °F 44 °F 22 °F (1874)
Degree Days  
Heating Degree Days 21 13  
Month to date heating degree days 174 184  
Since 1 July heating degree days 4310 4406  
Cooling Degree Days 0 0  
Month to date cooling degree days 2 0  
Year to date cooling degree days 2 1  
Moisture  
Dew Point 39 °F    
Average Humidity 82    
Maximum Humidity 93    
Minimum Humidity 71    
Precipitation  
Precipitation 0.63 in 0.16 in 2.12 in (1933)
Month to date precipitation 1.12 1.91  
Year to date precipitation 11.03 13.01  
Snow  
Snow 0.00 in 0.00 in 2.00 in (1918)
Month to date snowfall 0.0 0.4  
Since 1 July snowfall 26.1 25.6  
Snow Depth 0.00 in    
Sea Level Pressure  
Sea Level Pressure 29.87 in    
Wind  
Wind Speed 11 mph (ENE)    
Max Wind Speed 23 mph    
Max Gust Speed 34 mph    
Visibility 6 miles    
Events Rain    
T = Trace of Precipitation, MM = Missing Value Source: NWS Daily Summary

Daily Weather History Graph

Daily Weather History Graph

Search for Another Location

Airport or City:

Trip Planner

Search our weather history database for the weather conditions in past years. The results will help you decide how hot, cold, wet, or windy it might be!

Date:

Astronomy

Apr. 12, 2013 Rise Set
Actual Time 6:21 AM EDT 7:32 PM EDT
Civil Twilight 5:53 AM EDT 8:00 PM EDT
Nautical Twilight 5:19 AM EDT 8:34 PM EDT
Astronomical Twilight 4:44 AM EDT 9:10 PM EDT
Moon 7:28 AM EDT (4/12) 10:01 PM EDT (4/12)
Length of Visible Light 14h 07m
Length of Day
13h 11m
Waxing Crescent, 5% of the Moon is Illuminated
Apr 12
Waxing Crescent
Apr 18
First Quarter
Apr 25
Full
May 2
Last Quarter
May 9
New

Hourly Weather History & Observations

Time (EDT) Temp. Windchill Dew Point Humidity Pressure Visibility Wind Dir Wind Speed Gust Speed Precip Events Conditions
12:51 AM 46.9 °F - 37.9 °F 71% 30.02 in 10.0 mi ENE 10.4 mph - N/A   Overcast
1:51 AM 46.0 °F 40.2 °F 37.9 °F 73% 30.01 in 10.0 mi NE 12.7 mph 18.4 mph N/A   Overcast
2:29 AM 46.0 °F 41.4 °F 37.9 °F 73% 30.03 in 10.0 mi East 9.2 mph - N/A   Overcast
2:51 AM 46.0 °F 41.0 °F 37.9 °F 73% 30.00 in 10.0 mi ESE 10.4 mph 17.3 mph N/A   Overcast
3:51 AM 46.0 °F 40.6 °F 37.9 °F 73% 29.99 in 10.0 mi East 11.5 mph 18.4 mph N/A   Overcast
4:24 AM 45.0 °F 40.6 °F 39.9 °F 82% 30.02 in 7.0 mi East 8.1 mph 16.1 mph N/A   Overcast
4:51 AM 44.1 °F 39.0 °F 39.9 °F 85% 29.98 in 4.0 mi East 9.2 mph 25.3 mph N/A   Overcast
5:09 AM 44.1 °F 39.0 °F 41.0 °F 89% 30.01 in 4.0 mi East 9.2 mph 17.3 mph N/A   Overcast
5:20 AM 44.1 °F 37.4 °F 41.0 °F 89% 30.00 in 5.0 mi East 13.8 mph 25.3 mph N/A   Overcast
5:51 AM 43.0 °F 36.0 °F 39.0 °F 86% 29.96 in 7.0 mi East 13.8 mph 24.2 mph N/A   Overcast
6:10 AM 44.1 °F 40.1 °F 39.0 °F 82% 29.96 in 10.0 mi Variable 6.9 mph 20.7 mph N/A   Overcast
6:51 AM 44.1 °F 37.7 °F 37.0 °F 76% 29.94 in 10.0 mi ESE 12.7 mph 24.2 mph N/A   Overcast
7:51 AM 43.0 °F 37.2 °F 37.9 °F 82% 29.91 in 6.0 mi ESE 10.4 mph 23.0 mph 0.01 in Rain Light Rain
8:51 AM 42.1 °F 34.5 °F 37.9 °F 85% 29.90 in 4.0 mi East 15.0 mph 26.5 mph 0.02 in Rain Light Rain
9:14 AM 42.1 °F 35.7 °F 39.0 °F 89% 29.92 in 2.5 mi East 11.5 mph - 0.01 in Rain Light Rain
9:26 AM 41.0 °F 34.7 °F 39.0 °F 93% 29.92 in 1.2 mi East 10.4 mph 19.6 mph 0.06 in Rain Heavy Rain
9:33 AM 41.0 °F 35.2 °F 39.0 °F 93% 29.91 in 1.0 mi East 9.2 mph - 0.10 in Rain Heavy Rain
9:51 AM 41.0 °F 35.8 °F 39.0 °F 93% 29.89 in 1.2 mi East 8.1 mph 19.6 mph 0.18 in Rain Light Rain
9:54 AM 41.0 °F 35.2 °F 39.0 °F 93% 29.91 in 3.0 mi East 9.2 mph 19.6 mph 0.00 in Rain Light Rain
10:11 AM 41.0 °F 36.4 °F 39.0 °F 93% 29.92 in 1.8 mi NE 6.9 mph 17.3 mph 0.02 in Rain Rain
10:51 AM 41.0 °F 34.3 °F 39.0 °F 93% 29.88 in 2.5 mi East 11.5 mph 20.7 mph 0.18 in Rain Light Rain
10:58 AM 41.0 °F 34.7 °F 39.0 °F 93% 29.91 in 5.0 mi ESE 10.4 mph 20.7 mph 0.00 in Rain Light Rain
11:12 AM 41.0 °F 34.3 °F 39.0 °F 93% 29.90 in 2.0 mi East 11.5 mph 20.7 mph 0.02 in Rain Rain
11:29 AM 42.1 °F 36.6 °F 39.0 °F 89% 29.92 in 4.0 mi NE 9.2 mph 19.6 mph 0.05 in Rain Light Rain
11:51 AM 42.1 °F 39.2 °F 39.0 °F 89% 29.88 in 5.0 mi Variable 4.6 mph 17.3 mph 0.07 in Rain Light Rain
12:51 PM 43.0 °F 36.0 °F 39.9 °F 89% 29.81 in 10.0 mi ENE 13.8 mph 23.0 mph 0.04 in   Overcast
1:31 PM 42.1 °F - 39.9 °F 92% 29.83 in 10.0 mi North - - N/A   Overcast
1:51 PM 42.1 °F 36.6 °F 39.0 °F 89% 29.80 in 10.0 mi ENE 9.2 mph 24.2 mph N/A   Overcast
2:08 PM 42.1 °F 36.1 °F 39.0 °F 89% 29.81 in 2.0 mi East 10.4 mph 25.3 mph 0.01 in Rain Rain
2:15 PM 42.1 °F 34.2 °F 39.9 °F 92% 29.81 in 1.5 mi ENE 16.1 mph 21.9 mph 0.03 in Rain Rain
2:36 PM 42.1 °F 34.5 °F 39.0 °F 89% 29.80 in 3.0 mi ENE 15.0 mph 26.5 mph 0.07 in Rain Light Rain
2:51 PM 41.0 °F 31.4 °F 39.0 °F 93% 29.77 in 8.0 mi ENE 21.9 mph 32.2 mph 0.07 in   Overcast
3:44 PM 41.0 °F 32.5 °F 39.0 °F 93% 29.77 in 2.5 mi ENE 17.3 mph 28.8 mph 0.01 in Rain Light Rain
3:51 PM 42.1 °F 33.9 °F 39.0 °F 89% 29.74 in 4.0 mi ENE 17.3 mph 28.8 mph 0.01 in   Overcast
4:51 PM 41.0 °F 33.5 °F 37.9 °F 89% 29.74 in 10.0 mi ENE 13.8 mph 29.9 mph N/A   Overcast
5:51 PM 42.1 °F - 39.0 °F 89% 29.75 in 10.0 mi North - - N/A   Overcast
6:25 PM 42.1 °F 34.9 °F 39.0 °F 89% 29.76 in 2.5 mi ENE 13.8 mph 24.2 mph N/A   Overcast
6:46 PM 42.8 °F 35.8 °F 39.2 °F 87% 29.76 in 3.0 mi ENE 13.8 mph 23.0 mph N/A   Overcast
6:51 PM 42.1 °F 36.6 °F 39.9 °F 92% 29.73 in 4.0 mi East 9.2 mph 23.0 mph N/A   Overcast
7:51 PM 42.1 °F 36.6 °F 39.9 °F 92% 29.72 in 8.0 mi ENE 9.2 mph - N/A   Overcast
8:51 PM 43.0 °F 36.0 °F 39.9 °F 89% 29.73 in 10.0 mi NE 13.8 mph 19.6 mph N/A   Overcast
9:51 PM 43.0 °F 37.7 °F 39.9 °F 89% 29.73 in 10.0 mi ENE 9.2 mph - N/A   Overcast
10:51 PM 43.0 °F 38.8 °F 39.9 °F 89% 29.75 in 7.0 mi NE 6.9 mph 17.3 mph N/A   Overcast
11:51 PM 42.1 °F 37.7 °F 39.9 °F 92% 29.74 in 7.0 mi NE 6.9 mph - 0.01 in Rain Light Rain